This is the latest recevied weather packets stored in our database for station/object DC7RY. If no packets are shown the sender has not sent any weather packets the latest 10 day(s).
| Time | Temp. | Humidity | Pressure | Rain* | Wind** | Luminosity | Snow |
|---|---|---|---|---|---|---|---|
| 1777861830 | 12.22° C | 82% | 1008.6 hPa | 0 mm | - | 0 W/m² | - |
| 1777861222 | 12.78° C | 81% | 1008.9 hPa | 0 mm | - | 0 W/m² | - |
| 1777860628 | 12.78° C | 80% | 1009 hPa | 0 mm | - | 0 W/m² | - |
| 1777860019 | 12.78° C | 80% | 1009.1 hPa | 0 mm | - | 0 W/m² | - |
| 1777859425 | 12.78° C | 79% | 1009.1 hPa | 0 mm | - | 0 W/m² | - |
| 1777858832 | 12.78° C | 79% | 1009.1 hPa | 0 mm | - | 0 W/m² | - |
| 1777858224 | 13.33° C | 79% | 1009 hPa | 0 mm | - | 0 W/m² | - |
| 1777857629 | 13.33° C | 77% | 1009.1 hPa | 0 mm | - | 0 W/m² | - |
| 1777857031 | 13.33° C | 76% | 1008.9 hPa | 0 mm | - | 0 W/m² | - |
| 1777856423 | 13.89° C | 76% | 1008.9 hPa | 0 mm | - | 0 W/m² | - |
| 1777855831 | 14.44° C | 74% | 1009.1 hPa | 0 mm | - | 0 W/m² | - |
| 1777855223 | 14.44° C | 75% | 1009.1 hPa | 0 mm | - | 0 W/m² | - |
| 1777854631 | 15° C | 71% | 1009.1 hPa | 0 mm | - | 0 W/m² | - |
| 1777854023 | 15° C | 67% | 1009.1 hPa | 0 mm | - | 0 W/m² | - |
| 1777853431 | 14.44° C | 66% | 1008.9 hPa | 0 mm | - | 0 W/m² | - |
| 1777852823 | 13.89° C | 69% | 1008.9 hPa | 0 mm | - | 0 W/m² | - |
| 1777852231 | 13.89° C | 73% | 1008.9 hPa | 0 mm | - | 0 W/m² | - |
| 1777851623 | 13.89° C | 80% | 1008.7 hPa | 0 mm | - | 0 W/m² | - |
| 1777851031 | 13.89° C | 81% | 1008.7 hPa | 0 mm | - | 0 W/m² | - |
| 1777850423 | 13.89° C | 81% | 1009 hPa | 0 mm | - | 0 W/m² | - |
| 1777849831 | 13.89° C | 81% | 1008.5 hPa | 0 mm | - | 0 W/m² | - |
| 1777849223 | 13.89° C | 81% | 1008.3 hPa | 0 mm | - | 0 W/m² | - |
| 1777848630 | 13.89° C | 80% | 1008.5 hPa | 0 mm | - | 0 W/m² | - |
| 1777848021 | 13.89° C | 80% | 1008.4 hPa | 0 mm | - | 0 W/m² | - |
| 1777847429 | 13.89° C | 80% | 1008.3 hPa | 0 mm | - | 0 W/m² | - |
* Rain latest hour (hover to see other rain measurements)
** Current wind speed in m/s (hover to see current wind gust speed)